TimeCDT,TemperatureF,Dew PointF,Humidity,Sea Level PressureIn,VisibilityMPH,Wind Direction,Wind SpeedMPH,Gust SpeedMPH,PrecipitationIn,Events,Conditions,WindDirDegrees,DateUTC
12:15 AM,52.0,52.0,100,29.98,10.0,East,4.6,-,N/A,,Clear,80,2013-09-26 05:15:00
12:35 AM,51.3,51.3,100,29.98,10.0,ENE,4.6,-,N/A,,Clear,70,2013-09-26 05:35:00
12:55 AM,-9999,-9999,N/A,29.98,10.0,East,4.6,-,N/A,,Clear,80,2013-09-26 05:55:00
1:15 AM,-9999,-9999,N/A,29.99,10.0,ENE,4.6,-,N/A,,Clear,60,2013-09-26 06:15:00
1:35 AM,-9999,-9999,N/A,30.00,10.0,NE,5.8,-,N/A,,Clear,50,2013-09-26 06:35:00
1:55 AM,-9999,-9999,N/A,30.00,10.0,ENE,4.6,-,N/A,,Clear,60,2013-09-26 06:55:00
2:15 AM,-9999,-9999,N/A,30.00,7.0,NE,4.6,-,N/A,,Clear,50,2013-09-26 07:15:00
2:35 AM,-9999,-9999,N/A,30.01,7.0,ENE,4.6,-,N/A,,Clear,60,2013-09-26 07:35:00
2:55 AM,-9999,-9999,N/A,30.01,7.0,ENE,4.6,-,N/A,,Clear,60,2013-09-26 07:55:00
3:15 AM,-9999,-9999,N/A,30.01,10.0,ENE,4.6,-,N/A,,Clear,60,2013-09-26 08:15:00
3:35 AM,-9999,-9999,N/A,30.01,7.0,ENE,5.8,-,N/A,,Clear,60,2013-09-26 08:35:00
3:55 AM,-9999,-9999,N/A,30.01,7.0,ENE,4.6,-,N/A,,Clear,60,2013-09-26 08:55:00
4:15 AM,-9999,-9999,N/A,30.02,7.0,ENE,4.6,-,N/A,,Clear,60,2013-09-26 09:15:00
4:35 AM,-9999,-9999,N/A,30.02,5.0,NE,4.6,-,N/A,,Haze,50,2013-09-26 09:35:00
4:55 AM,-9999,-9999,N/A,30.03,5.0,NE,6.9,-,N/A,,Haze,50,2013-09-26 09:55:00
5:15 AM,-9999,-9999,N/A,30.03,4.0,ENE,3.5,-,N/A,,Haze,60,2013-09-26 10:15:00
5:35 AM,-9999,-9999,N/A,30.03,3.0,NE,5.8,-,N/A,,Overcast,50,2013-09-26 10:35:00
5:55 AM,-9999,-9999,N/A,30.04,2.0,NE,5.8,-,N/A,,Overcast,50,2013-09-26 10:55:00
6:15 AM,-9999,-9999,N/A,30.04,0.8,ENE,5.8,-,N/A,,Overcast,60,2013-09-26 11:15:00
6:35 AM,-9999,-9999,N/A,30.05,0.2,ENE,4.6,-,N/A,Fog,Fog,70,2013-09-26 11:35:00
6:55 AM,-9999,-9999,N/A,30.05,0.2,ENE,3.5,-,N/A,Fog,Fog,70,2013-09-26 11:55:00
7:15 AM,-9999,-9999,N/A,30.05,0.2,East,4.6,-,N/A,Fog,Fog,80,2013-09-26 12:15:00
7:35 AM,-9999,-9999,N/A,30.05,0.2,East,5.8,-,N/A,Fog,Fog,80,2013-09-26 12:35:00
7:55 AM,-9999,-9999,N/A,30.06,0.2,East,4.6,-,N/A,Fog,Fog,90,2013-09-26 12:55:00
8:15 AM,-9999,-9999,N/A,30.06,0.2,East,4.6,-,N/A,Fog,Fog,90,2013-09-26 13:15:00
8:35 AM,-9999,-9999,N/A,30.06,0.2,East,6.9,-,N/A,Fog,Fog,100,2013-09-26 13:35:00
8:55 AM,53.8,53.8,100,30.06,0.2,East,4.6,-,N/A,Fog,Fog,100,2013-09-26 13:55:00
9:15 AM,54.9,54.9,100,30.06,0.8,ESE,5.8,-,N/A,,Overcast,110,2013-09-26 14:15:00
9:35 AM,56.3,56.3,100,30.07,1.8,East,4.6,-,N/A,,Mostly Cloudy,90,2013-09-26 14:35:00
9:55 AM,58.3,58.3,100,30.07,5.0,East,4.6,-,N/A,,Scattered Clouds,90,2013-09-26 14:55:00
10:15 AM,62.6,60.4,93,30.07,10.0,SE,5.8,-,N/A,,Clear,130,2013-09-26 15:15:00
10:35 AM,66.0,55.8,69,30.07,10.0,ESE,8.1,-,N/A,,Clear,110,2013-09-26 15:35:00
10:55 AM,68.4,54.7,62,30.07,10.0,SE,9.2,-,N/A,,Clear,130,2013-09-26 15:55:00
11:15 AM,69.8,53.8,57,30.07,10.0,SE,11.5,-,N/A,,Clear,140,2013-09-26 16:15:00
11:35 AM,72.1,54.5,54,30.07,10.0,SSE,4.6,-,N/A,,Clear,150,2013-09-26 16:35:00
11:55 AM,72.5,54.0,52,30.07,10.0,SE,10.4,-,N/A,,Clear,130,2013-09-26 16:55:00
12:15 PM,73.6,53.4,49,30.06,10.0,ESE,9.2,-,N/A,,Clear,110,2013-09-26 17:15:00
12:35 PM,73.9,52.2,46,30.06,10.0,SE,9.2,17.3,N/A,,Clear,130,2013-09-26 17:35:00
12:55 PM,74.8,51.6,44,30.06,10.0,SE,6.9,16.1,N/A,,Clear,130,2013-09-26 17:55:00
1:15 PM,75.4,50.9,42,30.05,10.0,SE,3.5,16.1,N/A,,Clear,130,2013-09-26 18:15:00
1:35 PM,76.1,51.1,41,30.05,10.0,ESE,8.1,-,N/A,,Clear,110,2013-09-26 18:35:00
1:55 PM,77.2,51.3,40,30.05,10.0,South,9.2,-,N/A,,Clear,170,2013-09-26 18:55:00
2:15 PM,77.2,51.8,41,30.04,10.0,SE,6.9,-,N/A,,Clear,140,2013-09-26 19:15:00
2:35 PM,77.7,50.4,38,30.04,10.0,SSE,3.5,-,N/A,,Clear,160,2013-09-26 19:35:00
2:55 PM,77.9,50.9,39,30.04,10.0,SSE,9.2,-,N/A,,Clear,160,2013-09-26 19:55:00
3:15 PM,78.3,50.4,38,30.03,10.0,SE,5.8,-,N/A,,Clear,130,2013-09-26 20:15:00
3:35 PM,78.1,50.2,38,30.03,10.0,SE,6.9,-,N/A,,Clear,130,2013-09-26 20:35:00
3:55 PM,78.1,50.5,38,30.03,10.0,SE,9.2,-,N/A,,Clear,130,2013-09-26 20:55:00
4:15 PM,77.7,49.8,37,30.02,10.0,East,8.1,-,N/A,,Clear,100,2013-09-26 21:15:00
4:35 PM,77.2,49.6,38,30.02,10.0,East,5.8,-,N/A,,Clear,100,2013-09-26 21:35:00
4:55 PM,77.0,49.8,38,30.03,10.0,ESE,6.9,-,N/A,,Clear,110,2013-09-26 21:55:00
5:15 PM,76.3,49.1,38,30.03,10.0,ESE,9.2,-,N/A,,Clear,120,2013-09-26 22:15:00
5:35 PM,75.7,49.3,39,30.03,10.0,ESE,9.2,-,N/A,,Clear,120,2013-09-26 22:35:00
5:55 PM,74.8,48.6,39,30.03,10.0,ESE,8.1,-,N/A,,Clear,120,2013-09-26 22:55:00
6:15 PM,73.4,48.9,42,30.03,10.0,ESE,6.9,-,N/A,,Clear,120,2013-09-26 23:15:00
6:35 PM,71.6,49.1,45,30.03,10.0,ESE,8.1,-,N/A,,Clear,120,2013-09-26 23:35:00
6:55 PM,70.2,48.4,46,30.03,10.0,ESE,6.9,-,N/A,,Clear,120,2013-09-26 23:55:00
7:15 PM,69.6,47.3,45,30.04,10.0,ESE,5.8,-,N/A,,Clear,120,2013-09-27 00:15:00
7:35 PM,68.4,48.0,48,30.04,10.0,ESE,8.1,-,N/A,,Clear,120,2013-09-27 00:35:00
7:55 PM,68.0,47.5,48,30.04,10.0,ESE,9.2,-,N/A,,Clear,110,2013-09-27 00:55:00
8:15 PM,67.1,47.7,50,30.05,10.0,East,8.1,-,N/A,,Clear,100,2013-09-27 01:15:00
8:35 PM,65.3,48.4,54,30.05,10.0,East,8.1,-,N/A,,Clear,100,2013-09-27 01:35:00
8:55 PM,64.0,48.7,57,30.06,10.0,East,10.4,-,N/A,,Clear,100,2013-09-27 01:55:00
9:15 PM,62.4,49.1,62,30.06,10.0,ESE,9.2,-,N/A,,Clear,110,2013-09-27 02:15:00
9:35 PM,60.8,49.3,66,30.07,10.0,ESE,5.8,-,N/A,,Clear,110,2013-09-27 02:35:00
9:55 PM,60.3,49.3,67,30.07,10.0,ESE,8.1,-,N/A,,Clear,110,2013-09-27 02:55:00
10:15 PM,59.7,49.6,69,30.07,10.0,East,6.9,-,N/A,,Clear,100,2013-09-27 03:15:00
10:35 PM,58.8,50.0,73,30.07,10.0,ESE,6.9,-,N/A,,Clear,110,2013-09-27 03:35:00
10:55 PM,58.1,54.3,87,30.07,10.0,ESE,5.8,-,N/A,,Clear,110,2013-09-27 03:55:00
11:15 PM,57.6,55.4,92,30.07,10.0,East,5.8,-,N/A,,Clear,100,2013-09-27 04:15:00
11:35 PM,56.8,56.8,100,30.08,10.0,East,5.8,-,N/A,,Clear,100,2013-09-27 04:35:00
11:55 PM,56.5,56.5,100,30.08,10.0,East,6.9,-,N/A,,Clear,100,2013-09-27 04:55:00